Wind_Speed
5 5 5 5 5 5 4 4 4 4 4 4 4 4 5 5 5 5 5 5 5 5 6 6 6 6 6 6 7 8 8 9 9 9 9 9 8 9 9 8 9 10 10
5 5 5 5 5 5 4 4 4 4 4 4 4 4 5 5 5 6 6 6 6 6 6 6 6 6 7 7 7 8 9 9 8 8 9 9 9 9 9 10 10 11 11
5 5 5 5 5 5 4 4 4 4 5 5 5 5 5 5 6 6 6 6 6 7 7 6 6 6 6 7 7 7 7 8 8 9 9 9 10 10 10 11 11 11 11
6 6 5 5 5 4 4 4 5 5 5 5 5 5 5 5 5 6 6 6 7 7 7 6 7 6 7 7 7 7 7 7 8 9 9 9 10 11 11 12 11 12 12
6 6 6 6 5 5 4 5 5 6 6 6 6 5 5 5 6 6 6 6 7 7 7 7 7 7 7 7 7 7 8 8 8 9 9 10 10 10 11 12 12 12 12
6 7 7 7 6 6 5 6 6 7 6 6 6 6 6 6 6 7 6 6 6 7 7 7 7 7 8 7 8 8 8 9 9 10 10 11 10 11 11 12 12 13 13
6 7 7 7 7 7 7 7 7 7 7 7 7 8 7 7 7 7 7 6 7 7 7 7 7 7 7 7 8 8 8 9 10 11 11 12 12 12 12 12 12 12 13
7 7 8 8 8 8 8 8 8 8 7 7 8 8 8 8 8 8 8 7 7 7 6 7 6 7 7 8 8 8 9 9 10 11 12 13 13 14 14 14 13 13 13
8 8 8 8 8 9 9 9 9 8 8 8 8 8 8 9 9 9 9 8 7 8 8 9 8 8 8 9 9 9 9 10 11 12 12 13 14 13 14 14 15 15 15
9 9 9 9 9 9 9 9 9 9 9 9 9 9 9 9 9 9 9 8 8 9 9 10 9 9 9 9 10 11 11 12 12 12 12 13 13 13 13 14 15 16 16
9 9 10 10 10 10 10 10 10 10 10 10 10 9 9 9 9 9 9 9 10 10 11 11 10 11 11 11 11 12 12 12 12 12 12 13 13 13 13 14 15 16 16
10 11 10 11 11 11 10 10 10 11 11 11 11 11 10 10 10 10 10 10 10 10 11 11 11 12 13 13 13 13 13 13 13 13 13 13 14 14 15 15 15 15 16
11 11 11 12 11 11 11 11 12 12 12 12 12 11 11 11 11 11 11 10 10 10 11 12 12 13 13 14 14 14 14 14 14 15 15 16 16 16 16 16 16 17 16
12 12 12 13 13 12 12 12 12 12 12 12 12 12 12 12 12 12 11 10 10 11 11 12 13 13 14 14 15 15 15 16 16 16 17 17 18 18 18 17 18 18 17
13 13 13 13 13 13 13 13 13 13 13 13 12 12 12 12 12 12 12 11 11 11 12 12 13 14 14 15 16 16 16 17 17 18 18 18 19 19 19 19 19 19 18
14 14 14 14 14 14 14 13 13 13 13 13 12 12 12 13 13 13 13 13 13 13 14 14 15 16 16 16 16 17 18 18 18 19 20 20 19 19 19 19 19 20 20
15 16 15 15 15 15 14 14 14 14 13 13 13 13 13 13 14 14 15 15 16 16 16 16 16 17 17 17 17 18 19 19 20 20 21 21 21 21 21 21 20 21 21
16 17 16 16 16 16 15 15 16 15 15 15 15 15 15 15 15 16 16 17 17 17 17 17 18 18 18 18 19 19 20 21 21 22 21 21 22 22 21 21 21 21 22
18 18 18 18 17 17 17 17 18 17 17 16 16 16 16 17 17 17 18 18 19 19 19 19 19 20 20 20 20 21 22 22 22 22 22 22 22 22 22 22 22 22 22
19 19 19 19 19 19 20 20 19 18 18 18 17 17 18 18 19 19 19 20 20 20 21 21 21 21 22 22 23 23 23 23 23 23 23 23 23 23 23 23 24 24 23
20 19 20 21 21 21 21 21 20 20 19 19 19 19 19 19 19 20 21 21 22 22 22 23 23 23 23 24 24 24 24 25 25 25 25 25 25 25 25 25 25 25 24
21 21 21 21 21 21 21 21 21 21 20 21 20 20 21 21 21 22 22 22 23 23 23 24 24 24 24 25 25 26 26 26 26 26 27 26 26 26 26 26 26 27 27
21 21 21 22 22 21 21 22 23 22 22 21 21 22 22 22 23 24 24 24 24 24 25 25 25 25 25 27 27 27 27 27 27 27 27 27 27 27 26 27 27 27 27
22 22 22 23 23 22 23 23 23 24 23 23 23 22 23 22 23 24 25 25 26 26 26 27 27 27 26 27 28 28 28 28 28 28 28 28 28 28 28 29 29 29 29
24 24 24 24 24 24 24 24 25 25 25 25 25 25 24 24 25 25 26 27 27 27 28 27 28 27 28 28 29 29 29 28 28 29 30 30 30 30 30 30 31 31 30
25 26 26 26 26 26 26 26 26 26 26 26 26 26 26 26 27 28 28 27 27 27 27 27 28 29 29 29 30 30 31 31 31 31 32 32 32 32 32 32 31 31 31
Wind_Direction
358 355 349 340 324 316 311 305 309 313 320 315 294 283 283 289 291 293 293 285 272 269 267 270 265 260 261 265 259 254 248 246 247 248 248 251 256 261 263 264 266 265 265
353 356 353 342 329 320 316 311 309 303 309 313 308 297 290 289 289 285 283 277 269 270 270 269 268 268 263 263 266 259 249 246 254 254 249 251 258 261 260 262 265 265 267
345 344 341 338 330 323 313 304 303 301 301 302 302 299 294 289 287 291 284 279 271 269 269 270 273 272 264 266 267 263 259 255 254 254 253 254 258 260 261 264 269 266 268
335 334 328 331 332 326 314 304 298 292 290 291 294 290 285 291 296 290 286 274 271 270 268 272 271 263 265 267 267 263 259 256 257 258 261 263 261 260 262 264 267 267 266
327 326 322 322 321 319 309 302 295 294 288 292 295 287 283 287 294 290 285 278 274 269 266 273 268 262 261 263 266 266 264 263 264 266 269 271 269 268 268 267 266 267 270
321 319 318 314 309 306 301 294 293 292 289 288 290 287 286 289 293 283 284 284 273 264 265 269 267 262 257 258 266 269 268 268 269 266 265 268 269 271 270 269 267 266 268
315 314 314 310 303 297 295 292 289 289 284 283 285 286 287 294 291 287 285 288 272 266 269 269 267 265 260 260 268 269 272 274 274 271 268 269 269 270 272 270 270 269 270
314 312 306 304 305 302 300 296 292 288 282 283 286 286 283 289 294 290 283 288 279 271 271 270 273 269 267 266 269 270 272 273 275 277 276 273 272 272 270 269 270 271 273
299 305 301 298 301 302 301 296 293 288 285 285 286 286 284 283 288 291 285 284 278 271 274 272 274 275 274 269 270 272 274 276 279 278 278 277 278 277 272 268 268 269 273
295 296 297 297 293 295 299 293 290 288 285 286 286 285 282 284 284 288 285 281 280 278 279 275 271 278 281 276 274 276 278 279 281 279 278 278 279 279 277 275 271 271 272
290 293 294 293 293 294 295 294 290 287 284 284 285 284 284 287 289 287 285 284 282 278 276 271 274 278 282 283 283 282 281 281 283 281 279 277 278 278 280 281 278 275 272
290 294 292 290 292 292 291 290 288 286 286 284 282 281 283 286 286 286 285 286 284 282 276 274 273 276 280 283 284 283 283 284 282 281 281 280 279 280 281 281 279 277 274
287 290 290 288 288 288 288 288 288 284 285 286 285 281 277 277 279 282 284 287 285 283 279 277 277 280 283 282 283 282 281 283 281 280 280 281 281 281 279 280 279 276 274
281 285 284 285 286 284 284 287 287 284 285 285 286 283 280 279 278 279 280 283 286 286 282 278 277 281 283 282 281 281 282 282 281 280 281 282 281 280 277 277 279 276 273
273 278 281 279 281 282 283 285 286 284 283 283 283 282 279 279 278 278 277 278 282 284 285 284 284 286 286 285 282 281 283 282 281 281 282 284 284 281 279 277 279 277 274
269 275 277 279 278 279 281 283 284 284 283 281 281 282 277 275 274 275 274 274 276 278 280 282 286 287 287 286 284 282 282 282 282 282 284 284 286 283 282 282 281 280 277
269 273 274 276 277 278 280 281 282 282 282 280 278 280 277 274 274 274 275 275 277 277 278 280 283 285 287 286 285 285 287 286 285 284 284 283 283 285 283 281 279 280 279
270 271 271 272 273 275 277 279 281 282 280 279 277 277 277 275 275 275 277 277 278 278 279 281 283 283 285 285 284 286 288 288 288 286 283 283 283 283 283 281 279 280 280
273 270 269 270 272 272 275 278 279 279 279 279 280 278 280 279 278 278 278 279 279 278 278 281 282 284 284 284 284 286 286 287 288 287 286 285 285 284 282 281 280 280 281
272 268 267 271 270 271 273 275 277 277 278 279 279 278 280 281 280 279 279 279 278 277 278 279 281 282 282 282 283 285 286 286 286 286 286 285 285 284 282 282 281 281 281
269 267 269 271 271 272 273 274 277 277 278 279 280 278 277 278 279 280 280 280 280 278 278 278 279 280 281 282 283 284 285 284 285 285 285 285 284 283 282 281 281 280 280
269 269 269 268 270 273 274 277 278 278 282 280 280 279 277 278 277 278 279 281 282 281 279 279 279 279 280 281 283 284 284 284 285 285 284 284 284 282 281 281 281 281 282
269 270 268 270 271 273 276 277 280 280 280 280 279 280 279 280 281 279 279 281 282 282 280 279 279 279 279 280 282 284 285 284 285 284 284 284 284 283 281 280 280 281 282
269 269 268 270 271 272 274 276 278 279 279 280 280 280 280 281 281 280 280 281 281 280 281 280 279 279 280 283 283 282 284 285 286 286 285 284 282 282 281 281 280 279 280
269 268 267 268 270 272 273 275 277 279 280 280 281 282 281 280 282 282 283 282 281 280 280 279 279 279 280 282 284 285 285 285 285 287 286 285 284 283 283 282 280 279 279
270 270 270 269 268 270 272 274 277 279 279 280 280 280 279 280 282 283 284 284 284 283 281 280 281 280 280 282 284 286 286 286 285 286 286 286 284 283 282 281 279 278 278
Height
5870 5869 5868 5868 5867 5867 5867 5867 5867 5867 5866 5866 5866 5866 5867 5867 5867 5867 5867 5867 5867 5867 5867 5867 5868 5868 5868 5868 5868 5869 5869 5869 5870 5871 5871 5872 5872 5873 5873 5873 5874 5874 5874
5869 5868 5868 5867 5866 5866 5865 5865 5865 5865 5865 5865 5865 5865 5865 5865 5865 5866 5866 5866 5866 5866 5866 5866 5867 5867 5867 5867 5867 5867 5867 5867 5868 5869 5869 5870 5870 5871 5871 5871 5871 5871 5871
5868 5868 5867 5866 5865 5865 5865 5865 5864 5864 5864 5864 5864 5864 5864 5864 5864 5864 5864 5864 5864 5865 5865 5865 5866 5866 5866 5866 5866 5866 5866 5866 5866 5867 5867 5868 5868 5868 5869 5869 5869 5868 5868
5868 5867 5866 5865 5865 5864 5864 5864 5864 5863 5863 5863 5863 5863 5863 5863 5863 5863 5863 5863 5863 5863 5863 5864 5864 5864 5864 5864 5864 5864 5864 5864 5865 5865 5865 5866 5866 5866 5866 5866 5866 5866 5865
5867 5866 5865 5864 5864 5863 5863 5863 5862 5862 5862 5862 5862 5861 5862 5862 5862 5861 5861 5861 5861 5861 5862 5862 5862 5862 5862 5862 5863 5863 5863 5863 5863 5863 5863 5863 5863 5864 5864 5864 5864 5863 5863
5865 5865 5864 5863 5863 5862 5862 5862 5862 5861 5861 5861 5861 5860 5860 5860 5860 5860 5860 5859 5859 5860 5860 5860 5860 5860 5860 5861 5861 5861 5861 5861 5861 5861 5861 5861 5861 5861 5861 5861 5861 5861 5860
5864 5864 5863 5862 5862 5861 5861 5860 5860 5860 5859 5859 5859 5859 5859 5859 5858 5858 5858 5858 5858 5858 5858 5858 5858 5858 5859 5859 5859 5859 5859 5859 5859 5859 5859 5858 5859 5858 5858 5858 5858 5858 5857
5862 5862 5861 5861 5860 5860 5860 5859 5858 5858 5858 5858 5858 5858 5858 5858 5857 5856 5856 5856 5856 5856 5857 5857 5856 5856 5857 5857 5857 5857 5857 5856 5856 5856 5856 5856 5856 5855 5855 5855 5855 5855 5854
5860 5860 5859 5859 5858 5858 5858 5857 5857 5856 5856 5856 5856 5857 5856 5856 5855 5855 5855 5855 5855 5855 5855 5855 5855 5855 5855 5855 5855 5855 5855 5854 5854 5853 5853 5853 5852 5852 5852 5852 5852 5851 5851
5858 5857 5857 5857 5857 5856 5856 5855 5855 5855 5855 5854 5854 5854 5854 5854 5854 5854 5853 5853 5853 5853 5853 5853 5853 5853 5852 5852 5852 5852 5852 5852 5851 5851 5850 5850 5849 5849 5848 5848 5848 5847 5847
5855 5855 5855 5855 5854 5854 5854 5853 5853 5853 5853 5853 5852 5852 5852 5852 5852 5852 5851 5851 5851 5850 5850 5850 5850 5850 5850 5850 5849 5849 5849 5848 5848 5847 5847 5846 5846 5845 5845 5844 5844 5844 5843
5853 5853 5853 5852 5852 5852 5851 5851 5851 5851 5851 5850 5850 5850 5850 5850 5850 5849 5849 5848 5848 5848 5848 5848 5848 5847 5847 5847 5846 5846 5845 5845 5844 5844 5843 5843 5842 5842 5841 5841 5840 5840 5839
5851 5850 5850 5850 5849 5849 5849 5849 5848 5848 5848 5848 5847 5847 5847 5847 5847 5847 5846 5846 5846 5846 5846 5845 5845 5844 5844 5843 5843 5842 5842 5841 5841 5840 5840 5839 5839 5838 5838 5837 5836 5835 5835
5848 5848 5847 5847 5847 5847 5846 5846 5846 5846 5845 5845 5844 5844 5844 5844 5844 5844 5844 5844 5843 5843 5842 5842 5842 5841 5840 5840 5839 5838 5838 5837 5837 5836 5836 5835 5834 5834 5833 5832 5832 5831 5830
5844 5844 5844 5844 5844 5844 5843 5843 5843 5842 5842 5842 5841 5841 5841 5840 5840 5840 5840 5840 5841 5840 5839 5839 5838 5837 5836 5836 5835 5834 5833 5833 5832 5832 5831 5830 5829 5829 5828 5827 5827 5826 5825
5840 5840 5841 5840 5840 5840 5840 5840 5840 5840 5839 5839 5838 5838 5837 5837 5837 5837 5837 5837 5837 5836 5836 5835 5834 5833 5833 5832 5831 5830 5829 5828 5828 5827 5826 5825 5824 5824 5823 5822 5822 5821 5820
5836 5836 5837 5837 5837 5837 5837 5837 5836 5836 5836 5835 5835 5834 5834 5834 5833 5833 5833 5833 5832 5832 5832 5831 5830 5829 5828 5827 5826 5825 5824 5823 5822 5822 5821 5820 5819 5818 5817 5816 5816 5815 5814
5832 5832 5832 5833 5833 5833 5833 5832 5832 5832 5831 5831 5831 5830 5830 5830 5829 5829 5829 5828 5828 5828 5827 5826 5825 5824 5824 5823 5822 5821 5819 5818 5817 5815 5814 5813 5812 5812 5811 5810 5809 5809 5808
5827 5827 5828 5828 5828 5828 5829 5828 5828 5828 5827 5827 5826 5826 5826 5825 5825 5825 5824 5824 5823 5823 5822 5821 5820 5819 5819 5817 5816 5815 5814 5812 5810 5809 5808 5806 5806 5805 5804 5803 5803 5802 5802
5822 5822 5823 5823 5823 5824 5824 5824 5823 5823 5823 5822 5822 5821 5821 5821 5820 5820 5819 5818 5818 5817 5817 5816 5815 5814 5813 5812 5810 5809 5807 5806 5804 5803 5801 5800 5799 5798 5797 5797 5796 5796 5795
5817 5817 5818 5818 5818 5818 5818 5818 5817 5818 5818 5818 5817 5816 5816 5815 5815 5814 5813 5812 5812 5811 5810 5810 5809 5808 5807 5805 5804 5803 5801 5800 5798 5796 5795 5793 5792 5792 5790 5790 5789 5788 5787
5812 5812 5812 5812 5813 5812 5812 5812 5812 5812 5812 5812 5811 5811 5810 5809 5809 5808 5807 5806 5805 5804 5804 5803 5802 5801 5800 5799 5797 5796 5794 5793 5792 5790 5788 5787 5785 5784 5783 5782 5781 5780 5779
5806 5806 5807 5807 5807 5807 5807 5807 5807 5806 5806 5806 5806 5805 5804 5803 5802 5802 5801 5799 5798 5797 5797 5796 5795 5794 5793 5792 5790 5789 5787 5785 5784 5783 5781 5779 5777 5776 5775 5774 5773 5772 5771
5800 5800 5800 5801 5801 5801 5801 5801 5801 5801 5800 5800 5799 5798 5798 5797 5796 5794 5793 5792 5791 5790 5789 5788 5787 5786 5785 5784 5782 5781 5779 5778 5776 5775 5773 5772 5770 5769 5767 5766 5764 5764 5763
5793 5794 5794 5794 5795 5795 5795 5795 5794 5794 5794 5793 5792 5791 5790 5790 5788 5787 5786 5785 5783 5782 5781 5780 5779 5778 5777 5776 5774 5773 5771 5770 5769 5767 5765 5763 5762 5760 5759 5757 5756 5754 5754
5786 5786 5787 5787 5787 5788 5788 5788 5787 5787 5786 5786 5785 5784 5783 5782 5781 5779 5778 5777 5775 5774 5773 5772 5771 5770 5768 5767 5766 5764 5763 5761 5760 5758 5756 5755 5753 5751 5750 5749 5747 5745 5744